TIME,DELAY(SENSOR),PRES,T(CTD),SAL,OXYGEN,RAWTEMP,T(OPTODE),TCPHASE,FLUOR,BETA(BETA700),BETA(BETA412),BETA(BETA440),CDOM,C(CSC),ED(ED411.90),ED(ED443.80),ED(ED489.40),ED(ED554.70),LU(LU412.20),LU(LU443.80),LU(LU489.40),LU(LU555.00),COMP,TILTX,TILTX(TILTY),CHECK
1371484981,5803,496.5700073242187500,17.9955005645751950,36.5359992980957000,227.0802001953125000,155.2942047119140600,17.9969291687011720,31.1242904663085940,50,102,96,80,67,10569,2146958848,2147513673,2147266029,2147452141,2147084690,2146954395,2147654098,2147123565,1032,-1,8,20493
1371485102,5805,485.3999938964844000,18.1035003662109380,36.5489997863769500,228.1300964355468800,151.6262054443359400,18.1077098846435550,31.0220909118652340,50,103,94,81,67,10563,2146957824,2147510134,2147266834,2147451108,2147084653,2146959652,2147650441,2147133385,788,-1,8,37691
1371485223,5805,473.8500061035156000,18.1919002532959000,36.5523986816406250,231.5462036132812500,148.6911926269531200,18.1963806152343750,30.8140506744384770,50,100,95,82,67,10566,2146958518,2147510966,2147267364,2147454098,2147076498,2146955638,2147648868,2147128649,1171,-2,8,6212
1371485336,5805,462.9299926757812500,18.2513008117675780,36.5498008728027340,240.5585937500000000,147.0404052734375000,18.2462596893310550,30.3605003356933600,50,101,96,80,64,10567,2146957833,2147513654,2147267638,2147447908,2147077211,2146959945,2147648310,2147128969,1643,-1,8,33126
1371485446,5806,452.2500000000000000,18.2807998657226560,36.5516014099121100,242.1410980224609400,146.0661926269531200,18.2756900787353500,30.2742595672607420,50,101,94,81,64,10566,2146957421,2147510692,2147266898,2147448228,2147080493,2146956726,2147649398,2147129298,1447,-1,8,48470
1371485567,5806,440.8500061035156000,18.3409004211425780,36.5517997741699200,244.7012023925781200,144.1244049072265600,18.3343791961669920,30.1304206848144530,50,100,94,81,64,10571,2146956498,2147510272,2147266916,2147449206,2147082029,2146959268,2147648786,2147130358,539,-1,8,24475
1371485679,5805,430.4299926757812500,18.3633995056152340,36.5497016906738300,249.6831054687500000,143.3016967773437500,18.3592395782470700,29.8943691253662100,50,99,93,81,63,10563,2146957604,2147513417,2147266678,2147447049,2147083437,2146957997,2147648658,2147124800,1007,-1,8,20514
1371485800,5807,419.2099914550781000,18.3812999725341800,36.5491981506347660,252.9111022949218800,142.7174072265625000,18.3768997192382800,29.7435398101806640,50,100,94,81,64,10568,2146956461,2147512704,2147266020,2147449325,2147073389,2146962898,2147649216,2147124571,246,-1,8,54769
1371485924,5804,408.0000000000000000,18.3992004394531250,36.5479011535644500,255.4064025878906200,142.1219024658203000,18.3948993682861330,29.6265792846679700,51,100,93,81,63,10565,2146957613,2147514075,2147264246,2147448649,2147087442,2146965568,2147647689,2147128320,3338,-1,8,8247
1371486045,5803,397.3599853515625000,18.4244995117187500,36.5508995056152340,256.4175109863281000,141.2781066894531200,18.4204101562500000,29.5716209411621100,50,101,94,81,63,10563,2146958080,2147512539,2147266240,2147448438,2147080118,2146959241,2147650112,2147126262,2886,-1,8,31175
1371486166,5805,386.7900085449219000,18.4452991485595700,36.5541000366210940,257.0288085937500000,140.6235046386718800,18.4402008056640620,29.5367393493652340,50,100,94,80,64,10562,2146957888,2147514395,2147266806,2147451757,2147083629,2146959442,2147649956,2147129261,2509,-1,8,63609
1371486301,5801,375.0299987792969000,18.4661006927490230,36.5577011108398440,256.8240051269531000,139.9380950927734400,18.4609203338623050,29.5367107391357420,49,100,95,81,62,10565,2146958893,2147513837,2147260544,2147448557,2147084114,2146955812,2147648411,2147126564,2237,-1,8,35463
1371486422,5805,364.5599975585937500,18.4790992736816400,36.5592994689941400,256.9016113281250000,139.4750976562500000,18.4749107360839840,29.5270690917968750,50,100,94,81,64,10561,2146960521,2147513051,2147268882,2147448960,2147082706,2146965622,2147648036,2147124772,2157,-1,8,35567
1371486557,5804,352.9899902343750000,18.4883003234863280,36.5586013793945300,256.9649963378906000,139.1665039062500000,18.4842395782470700,29.5204696655273440,50,101,96,82,63,10559,2146960457,2147514907,2147266459,2147446912,2147082587,2146958948,2147646326,2147129024,1506,-1,8,40386
1371486678,5804,342.8699951171875000,18.5011005401611330,36.5586013793945300,256.5844116210937500,138.7487030029297000,18.4968795776367200,29.5314903259277340,50,100,95,82,63,10559,2146956873,2147512585,2147266349,2147450441,2147068105,2146960630,2147657142,2147132699,1111,-1,8,39568
1371486821,5806,331.1600036621094000,18.5128993988037100,36.5598983764648440,256.8200073242187500,138.3578033447265600,18.5086898803710940,29.5161590576171880,50,102,94,80,63,10559,2146955520,2147514121,2147268059,2147445915,2147082651,2146959533,2147654710,2147128246,496,-1,8,12738
1371486955,5805,320.4400024414062500,18.5207996368408200,36.5593986511230500,256.3781127929687500,138.0789031982422000,18.5171298980712900,29.5317096710205080,50,104,95,83,63,10560,2146960704,2147512420,2147268306,2147447360,2147076690,2146963776,2147653504,2147129929,2805,-1,8,5766
1371487087,5805,309.9899902343750000,18.5282001495361330,36.5588989257812500,256.2229003906250000,137.8220977783203000,18.5248908996582030,29.5351905822753900,50,101,95,82,64,10559,2146955419,2147511442,2147267062,2147450486,2147079981,2146964909,2147656182,2147129280,2437,-1,8,43537
1371487246,5804,296.0599975585937500,18.5531997680664060,36.5579986572265600,255.6000976562500000,136.9947967529297000,18.5499095916748050,29.5513191223144530,50,102,95,81,63,10555,2146959780,2147516882,2147266505,2147450422,2147079469,2146966957,2147663003,2147129142,2213,-1,8,21936
1371487356,5805,284.8599853515625000,18.5926990509033200,36.5586013793945300,254.9421997070312500,135.6569976806640600,18.5903606414794920,29.5624694824218750,50,100,94,83,64,10556,2146959277,2147513380,2147265956,2147448301,2147079744,2146968612,2147668141,2147131922,1641,-1,8,423
1371487466,5806,273.8299865722656000,18.6697998046875000,36.5615005493164060,253.9756011962890600,133.1855010986328000,18.6651096343994140,29.5725593566894530,50,102,94,81,63,10559,2146953956,2147515008,2147261787,2147448905,2147084041,2146971465,2147674843,2147131346,1494,-1,8,46513
1371487578,5802,262.8599853515625000,18.7504005432128900,36.5657997131347660,253.6369018554687500,130.4936065673828000,18.7465400695800780,29.5521907806396500,51,102,95,81,63,10560,2146957366,2147516900,2147266057,2147450368,2147073837,2146969874,2147683410,2147130505,1237,-1,8,60457
1371487688,5808,252.5599975585937500,18.8279991149902340,36.5696983337402340,252.5084991455078000,127.6083984375000000,18.8338394165039060,29.5642204284667970,52,103,94,82,63,10554,2146957878,2147513728,2147265334,2147448822,2147085092,2146981558,2147694070,2147129993,908,-1,8,60528
1371487809,5805,241.4799957275390600,18.8742008209228500,36.5694999694824200,252.0514984130859400,126.1918029785156200,18.8767108917236330,29.5659294128417970,53,107,95,81,63,10553,2146956708,2147515565,2147269046,2147443867,2147082651,2146985581,2147705462,2147134153,52,-1,8,51303
1371487932,5804,230.4299926757812500,19.0529003143310550,36.5774993896484400,250.1562042236328000,120.3671035766601600,19.0530395507812500,29.5740699768066400,58,105,95,81,65,10549,2146958317,2147516470,2147264685,2147446601,2147079250,2146986816,2147723913,2147132141,1800,-1,8,54006
1371488053,5805,219.8000030517578000,19.1879005432128900,36.5849990844726560,248.7015075683593800,116.0723037719726600,19.1831207275390620,29.5829391479492200,63,106,95,83,65,10546,2146954322,2147514413,2147266112,2147446162,2147082761,2147000905,2147747940,2147134637,449,-2,8,432
1371488188,5804,208.1999969482422000,19.2875003814697270,36.5909004211425800,248.1226959228515600,112.8189010620117200,19.2816791534423830,29.5666007995605470,69,108,96,83,64,10539,2146957979,2147517184,2147270811,2147445028,2147083510,2147021037,2147786624,2147134418,3059,-1,8,4469
1371488309,5805,197.6699981689453000,19.3195991516113280,36.5908012390136700,248.6334991455078000,111.6736984252929700,19.3163890838623050,29.5290794372558600,72,108,96,82,64,10540,2146956278,2147514907,2147269065,2147442898,2147083840,2147038500,2147824374,2147138697,3309,-1,8,10929
1371488364,5808,192.8999938964843800,19.3665008544921880,36.5924987792968750,248.4851074218750000,110.0578994750976600,19.3653602600097660,29.5147399902343750,74,110,96,81,64,10538,2146956269,2147515401,2147270665,2147442907,2147090139,2147041846,2147845677,2147138368,108,-1,8,49460
1371488419,5807,188.1699981689453000,19.4011993408203120,36.5929985046386700,249.1981964111328000,109.0848999023437500,19.3948593139648440,29.4705600738525400,72,108,95,83,64,10536,2146953920,2147516516,2147273636,2147443090,2147084224,2147054729,2147870683,2147138084,567,-2,8,10153
1371488495,5807,181.9900054931640600,19.4342994689941400,36.5938987731933600,249.7787933349609400,107.3899002075195300,19.4462394714355470,29.4229507446289060,73,106,96,83,64,10517,2146958656,2147517897,2147274706,2147443593,2147091812,2147077696,2147918985,2147145270,768,-1,8,64196
1371488550,5808,177.7700042724609400,19.5086002349853500,36.5959014892578100,250.4907073974609400,105.5684967041015600,19.5014705657959000,29.3679008483886720,70,110,96,83,63,10535,2146957019,2147518171,2147276452,2147443026,2147096521,2147101138,2147959881,2147145636,1003,-1,8,29864
1371488605,5803,173.3099975585937500,19.5844001770019530,36.5978012084960940,251.8063049316406200,102.9813003540039000,19.5799293518066400,29.2768192291259770,70,108,96,84,64,10536,2146956681,2147520557,2147277531,2147446427,2147104091,2147131236,2148014180,2147147629,959,-1,8,21155
1371488660,5808,168.7500000000000000,19.6177997589111330,36.5988998413085940,253.4351959228515600,101.9673995971679700,19.6106891632080080,29.1927299499511720,70,106,97,83,63,10530,2146958784,2147518500,2147279058,2147443273,2147110820,2147169682,2148077824,2147149312,878,-1,8,1408
1371488715,5805,164.0599975585937500,19.6646995544433600,36.5998001098632800,254.1492004394531200,100.2553024291992200,19.6626300811767580,29.1399497985839840,70,108,97,82,64,10534,2146958683,2147523145,2147280045,2147441014,2147117714,2147211419,2148163556,2147159140,922,-1,9,62200
1371488770,5805,159.4400024414062500,19.7520008087158200,36.5978012084960940,256.2932128906250000,97.5343170166015600,19.7451992034912100,29.0128898620605470,68,109,96,83,65,10536,2146954093,2147523565,2147284580,2147444982,2147129700,2147256521,2148239652,2147161362,1114,-1,8,17169
1371488849,5803,153.5000000000000000,19.8528003692626950,36.5979995727539060,259.1228027343750000,94.0804367065429700,19.8500404357910160,28.8486099243164060,71,108,96,84,64,10529,2146959369,2147524169,2147290614,2147441307,2147146907,2147327954,2148372891,2147168576,1354,-2,8,58778
1371488904,5805,150.1499938964843800,19.9190006256103500,36.5976982116699200,260.3287048339844000,92.0987472534179700,19.9102191925048830,28.7727909088134770,72,109,96,83,64,10523,2146958848,2147524251,2147291821,2147442038,2147163785,2147377526,2148447350,2147177024,1036,-1,9,30386
1371488970,5802,146.3800048828125000,19.9969997406005860,36.5970993041992200,261.0733032226562500,89.4009780883789000,19.9921607971191400,28.7074508666992200,74,109,96,82,64,10521,2146961472,2147525686,2147295131,2147438326,2147179062,2147413065,2148512859,2147179053,1205,-2,9,29764
1371489047,5807,142.6699981689453000,20.2656993865966800,36.6171989440918000,256.7720031738281000,80.5107421875000000,20.2623596191406250,28.7760505676269530,90,114,97,85,64,10514,2146959817,2147526272,2147294454,2147439396,2147193472,2147457819,2148583744,2147185371,937,-1,8,20905
1371489149,5805,138.7400054931640600,20.3675003051757800,36.6211013793945300,254.0453033447265600,76.9737625122070300,20.3699493408203120,28.8476600646972660,90,116,97,82,64,10504,2146957595,2147530971,2147302189,2147437988,2147215488,2147522816,2148719561,2147193243,1223,-2,9,29925
1371489259,5804,134.9199981689453000,20.4582004547119140,36.6265983581543000,253.4720001220703000,74.2988967895507800,20.4513397216796880,28.8384704589843750,92,123,97,84,64,10510,2146959259,2147532745,2147304658,2147440027,2147248612,2147612745,2148861403,2147200749,2459,-1,9,119
1371489369,5803,130.8800048828125000,20.6863994598388670,36.6335983276367200,252.3643951416015600,69.0500869750976600,20.6111297607421880,28.8198890686035160,96,120,98,85,64,10508,2146962340,2147537700,2147314057,2147440027,2147308525,2147752091,2149088786,2147216777,2515,-1,9,62417
1371489479,5805,126.4700012207031200,20.8901004791259770,36.6628990173339840,246.3090972900390600,60.3884201049804700,20.8750705718994140,28.9754295349121100,102,129,99,84,64,10491,2146965366,2147544219,2147327268,2147438875,2147380416,2147944475,2149396114,2147239469,2914,-2,8,54569
1371489556,5805,122.3600006103515600,20.8929004669189450,36.6632995605468750,242.9821929931640600,58.8218307495117200,20.9228401184082030,29.1044807434082030,100,129,98,84,63,10488,2146967305,2147551113,2147342235,2147440530,2147469778,2148152649,2149713261,2147261613,3518,-1,8,33357
1371489633,5808,118.5199966430664000,21.1417999267578120,36.6944007873535160,235.7151031494140600,51.4869689941406250,21.1466503143310550,29.3445205688476560,112,137,101,86,64,10478,2146968201,2147561014,2147356388,2147440164,2147567817,2148370761,2150059190,2147290084,161,-2,8,16006
1371489732,5807,114.6999969482421900,21.3199996948242200,36.7197990417480500,222.9429931640625000,46.2125816345214840,21.3077297210693360,29.8930702209472660,112,134,100,87,66,10476,2146971538,2147567414,2147372800,2147439917,2147707428,2148672630,2150501458,2147324635,2654,-1,9,114
1371489844,5804,110.8700027465820300,21.4130001068115230,36.7309989929199200,215.3390960693359400,42.8206710815429700,21.4113903045654300,30.2357406616210940,115,141,100,85,65,10475,2146975780,2147582006,2147392822,2147440987,2147894546,2149052160,2151054409,2147369371,2851,-2,9,5489
1371489954,5805,107.0899963378906200,21.6028003692626950,36.7579002380371100,208.0335998535156200,36.0690002441406250,21.6178894042968750,30.5343704223632800,122,139,99,87,67,10467,2146980909,2147595730,2147418011,2147440530,2148096667,2149445595,2151642093,2147420644,3065,-2,8,45017
1371490122,5805,103.4300003051757800,22.1868991851806640,36.7887992858886700,192.0798034667968800,18.5820999145507800,22.1537609100341800,31.2060508728027340,151,133,99,85,69,10444,2146982226,2147606701,2147439323,2147438573,2148330852,2149878811,2152288987,2147486226,2569,-1,8,38461
1371490265,5805,99.3899993896484400,22.3782005310058600,36.7924003601074200,187.0115966796875000,11.6068897247314450,22.3679504394531250,31.4177703857421880,177,137,99,87,66,10418,2146989302,2147625965,2147472841,2147440100,2148743414,2150568146,2153233170,2147588397,2496,-2,9,21337
1371490320,5806,98.1299972534179700,22.3960990905761720,36.7911987304687500,186.9185943603515600,10.9386196136474610,22.3884792327880860,31.4144706726074220,179,140,99,85,68,10402,2146995328,2147634459,2147490139,2147442907,2148906880,2150817325,2153588754,2147630326,2140,-2,9,49528
1371490411,5804,95.1200027465820300,22.4304008483886720,36.7893981933593750,186.6696014404297000,9.8193254470825200,22.4228897094726560,31.4146308898925780,175,135,99,86,67,10403,2147005120,2147660004,2147523675,2147444909,2149351798,2151491922,2154475556,2147728109,2198,-1,9,3141
1371490466,5805,92.2699966430664000,22.4669990539550780,36.7851982116699200,187.7033996582031200,8.5569353103637700,22.4616909027099600,31.3349304199218750,173,138,101,87,67,10404,2147017792,2147683282,2147563053,2147443337,2149853019,2152211337,2155362304,2147832539,2450,-1,9,16389
1371490521,5803,89.3799972534179700,22.4915008544921880,36.7752990722656250,189.5411071777343800,7.6596112251281740,22.4892807006835940,31.2123298645019530,184,143,103,88,67,10367,2147028169,2147699510,2147583625,2147447149,2150266761,2152630902,2155698276,2147894482,2834,-2,9,5098
1371490576,5804,86.5999984741211000,22.5468997955322270,36.7029991149902340,198.6311950683593800,6.0292029380798340,22.5394191741943360,30.6613292694091800,212,145,101,90,66,10338,2147042468,2147726729,2147618139,2147444845,2150871488,2153410130,2156500224,2148000210,3134,-2,9,6612
1371490631,5803,84.4300003051757800,22.5867996215820300,36.6442985534668000,215.6885070800781200,4.8302469253540040,22.5762996673584000,29.7269306182861330,209,149,103,90,64,10313,2147065005,2147773238,2147681801,2147453138,2151736886,2154562651,2157818386,2148150939,3361,-2,9,28417
1371490686,5804,82.6399993896484400,22.6243000030517580,36.6268997192382800,230.1204071044922000,3.3104810714721680,22.6230602264404300,28.9960193634033200,221,162,107,92,63,10317,2147076864,2147804608,2147718409,2147455972,2152325330,2155264722,2158509897,2148241014,3192,-1,8,46264
1371490743,5807,81.1100006103515600,22.6581001281738280,36.6176986694335940,237.0272064208984400,2.4387269020080566,22.6498908996582030,28.6631507873535160,193,159,108,90,63,10310,2147100169,2147855762,2147793947,2147461668,2153225353,2156479625,2159904466,2148402313,54,-1,9,41490
1371490820,5805,79.3499984741211000,22.6833992004394530,36.6052017211914060,244.0466003417968800,1.6523389816284180,22.6740894317626950,28.3374691009521500,206,153,105,92,64,10320,2147135908,2147925677,2147886198,2147470500,2154495872,2158175286,2161837193,2148624576,163,-1,9,47586
1371490919,5806,77.3399963378906200,22.6898994445800780,36.6016006469726560,254.5509033203125000,1.1033619642257690,22.6909904479980470,27.8779106140136720,142,152,105,92,63,10347,2147167250,2147992658,2147969490,2147475894,2155732928,2159743158,2163339501,2148794889,482,-1,9,57810
1371491018,5806,75.5000000000000000,22.7245006561279300,36.5998001098632800,259.1477050781250000,0.2449840009212494,22.7174205780029300,27.6760807037353500,128,151,105,95,62,10358,2147225536,2148106688,2148112914,2147486729,2158015213,2162870473,2166579328,2149149668,467,-2,8,31896
1371491109,5806,72.7399978637695300,22.8111991882324220,36.5755004882812500,262.7759094238281000,-2.6404380798339844,22.8062801361084000,27.4926795959472660,99,151,106,90,62,10365,2147308123,2148286454,2148312329,2147503680,2161508306,2167454025,2170762505,2149624356,744,-1,8,49180
1371491164,5805,70.5299987792968800,22.9246006011962900,36.5646018981933600,262.8349914550781000,-5.9920282363891600,22.9095706939697270,27.4492607116699220,95,140,104,89,64,10393,2147413814,2148509293,2148573184,2147524982,2166046345,2173635346,2176983826,2150303945,1133,-1,8,40234
1371491219,5803,68.9800033569336000,22.9589004516601560,36.5625991821289060,264.6870117187500000,-7.4162011146545410,22.9534797668457030,27.3573894500732420,93,143,103,87,63,10381,2147464384,2148598372,2148641014,2147528429,2167953746,2175880310,2178685348,2150493540,1259,-1,9,47858
1371491296,5803,67.2699966430664000,23.1588993072509770,36.5273017883300800,266.9732971191406000,-12.5879096984863280,23.1130199432373050,27.2032909393310550,90,144,102,88,63,10378,2147547931,2148755885,2148777115,2147533302,2172125001,2181405156,2183706368,2151060205,1662,-1,9,56729
1371491398,5803,64.7799987792968800,23.1723003387451170,36.4132003784179700,265.6364135742187500,-14.4867095947265620,23.1716403961181640,27.2331504821777340,82,135,104,86,59,10379,2147646957,2148929673,2148907593,2147537526,2176452306,2186711259,2188097837,2151594578,2193,-1,9,23458
1371491453,5806,63.3499984741210940,23.1783008575439450,36.4007987976074200,268.6116027832031000,-14.7910003662109380,23.1810398101806640,27.1117897033691400,79,134,103,89,59,10392,2147741110,2149101330,2149059803,2147549668,2180268013,2191470427,2192151149,2152026304,2578,-1,9,55290
1371491596,5805,61.2599983215332000,23.5242004394531250,36.3343009948730500,279.2789001464844000,-23.1214408874511720,23.4384803771972660,26.6016693115234380,76,139,102,90,59,10388,2147915986,2149415945,2149313837,2147570322,2187288804,2199523693,2197952045,2152651620,3006,-1,9,46044
1371491720,5805,59.6300010681152340,23.7635993957519530,36.3067016601562500,284.5129089355469000,-32.8188095092773440,23.7387294769287100,26.2917709350585940,72,133,103,87,60,10395,2148029942,2149618331,2149543716,2147599753,2192517595,2205682038,2202877156,2153251245,291,-1,9,64639
1371492053,5806,57.2700004577636700,24.2362003326416000,36.2761001586914060,286.4942932128906000,-48.7018585205078100,24.2318305969238280,26.0308799743652340,72,134,100,86,57,10403,2148198107,2149931712,2149879945,2147654454,2200113819,2214139629,2209198134,2154105261,1148,-2,9,54288
1371492320,5804,55.3899993896484400,24.4183998107910160,36.2685012817382800,316.2077941894531000,-54.6135406494140600,24.4158096313476560,24.9467201232910160,72,135,103,88,57,10390,2148348196,2150181714,2150006656,2147639149,2208153508,2223366354,2215874304,2154813165,1591,-2,9,29285
1371492474,5809,52.2000007629394500,24.7150001525878900,36.2526016235351560,287.5546875000000000,-63.6784400939941400,24.6984004974365230,25.8155002593994140,70,131,101,88,61,10383,2148606354,2150609673,2150305883,2147662262,2221438838,2238057618,2226499574,2156296228,1857,-1,9,61700
1371492519,5805,50.7200012207031250,24.7422008514404300,36.2490005493164060,297.3829040527344000,-64.9430923461914000,24.7378692626953120,25.4546394348144530,69,132,101,87,61,10388,2148724882,2150808064,2150444342,2147663917,2227329974,2244889856,2231633810,2156996461,2180,-1,9,18932
1371492601,5806,48.5299987792968750,24.8160991668701170,36.2365989685058600,290.8523864746094000,-67.6610336303711000,24.8227405548095700,25.6510200500488280,69,126,101,88,60,10383,2148931702,2151157833,2150721005,2147695094,2236751826,2255022601,2238977929,2158156562,2259,-1,9,15596
1371492658,5805,46.7000007629394500,25.2740993499755860,36.2010002136230500,288.4000854492187500,-80.9065933227539000,25.2371406555175780,25.5822391510009770,65,126,101,86,59,10396,2149093211,2151419300,2150906953,2147712155,2244046262,2262729609,2244287744,2158960438,2380,-1,9,19380
1371493208,5804,44.9099998474121100,25.9874992370605470,36.1286010742187500,309.1026916503906000,-104.5148010253906200,25.9791507720947270,24.6001396179199220,63,128,100,87,59,10392,2149399844,2151938194,2151487506,2147886144,2257318326,2276693558,2253390144,2160225325,773,-1,9,45468
1371493325,5808,42.8499984741210940,26.1359996795654300,36.1156997680664060,289.1542053222656000,-109.9860992431640600,26.1517696380615230,25.2147102355957030,59,118,98,87,59,10419,2149619885,2152287177,2151626029,2147838738,2269082221,2288522962,2261221732,2161690761,1631,-1,9,45582
1371493442,5807,40.8800010681152340,26.1396007537841800,36.1156005859375000,277.2781066894531000,-110.2645034790039000,26.1605491638183600,25.6406402587890620,58,119,98,86,60,10423,2149902930,2152746304,2151972955,2147899776,2282959341,2302638902,2270532361,2163071899,1607,-2,9,61864
1371493511,5802,38.8499984741210940,26.1415004730224600,36.1150016784668000,274.5224914550781000,-110.1801986694336000,26.1578903198242200,25.7441997528076170,58,118,100,85,61,10425,2150221961,2153235008,2152375195,2148010715,2297812507,2317905481,2280752182,2164930112,1481,-2,8,44926
1371493556,5804,36.6800003051757800,26.1415996551513670,36.1151008605957000,269.9276123046875000,-110.1449966430664000,26.1567802429199220,25.9183502197265620,57,119,99,85,62,10423,2150540681,2153739428,2152785398,2148132480,2313854409,2333628480,2291198546,2167190555,1420,-1,9,53349
1371493601,5802,34.4300003051757800,26.1441001892089840,36.1143989562988300,266.6809082031250000,-110.2265014648437500,26.1593494415283200,26.0422401428222660,56,118,98,87,60,10423,2150906432,2154310601,2153253961,2148291456,2332440256,2352071012,2303750546,2169806884,1360,-2,9,11079
1371493634,5804,32.8100013732910160,26.1455993652343750,36.1148986816406250,265.9747009277344000,-110.3243026733398400,26.1624393463134770,26.0684108734130860,56,122,99,86,60,10425,2151114340,2154634395,2153547017,2148428050,2344103789,2363961801,2311054454,2171435346,1314,-2,9,56679